Weather History for KCGZ - February, 2014

Change the Weather History Date:

Monday, February 3, 2014

  Actual Average Record
Temperature  
Mean Temperature 50 °F -  
Max Temperature 59 °F 63 °F 78 °F (2009)
Min Temperature 37 °F 38 °F 23 °F (2011)
Degree Days  
Heating Degree Days 15    
Moisture  
Dew Point 20 °F    
Average Humidity 32    
Maximum Humidity 49    
Minimum Humidity 16    
Precipitation  
Precipitation 0.00 in - - ()
Sea Level Pressure  
Sea Level Pressure 29.88 in    
Wind  
Wind Speed 3 mph (WNW)    
Max Wind Speed 14 mph    
Max Gust Speed 20 mph    
Visibility 10 miles    
Events      
Averages and records for this station are not official NWS values.
T = Trace of Precipitation, MM = Missing Value Source: NWS Daily Summary

Daily Weather History Graph

Daily Weather History Graph

Search for Another Location

Airport or City:

Trip Planner

Search our weather history database for the weather conditions in past years. The results will help you decide how hot, cold, wet, or windy it might be!

Date:

Astronomy

Feb. 03, 2014 Rise Set
Actual Time 7:20 AM MST 6:01 PM MST
Civil Twilight 6:54 AM MST 6:27 PM MST
Nautical Twilight 6:25 AM MST 6:56 PM MST
Astronomical Twilight 5:56 AM MST 7:25 PM MST
Moon 9:41 AM MST (2/3) 10:37 PM MST (2/3)
Length of Visible Light 11h 32m
Length of Day
10h 40m
Waxing Crescent, 20% of the Moon is Illuminated
Feb 3
Waxing Crescent
Feb 6
First Quarter
Feb 14
Full
Feb 22
Last Quarter
Mar 1
New

Hourly Weather History & Observations

Time (MST) Temp. Windchill Dew Point Humidity Pressure Visibility Wind Dir Wind Speed Gust Speed Precip Events Conditions
12:15 AM 48.2 °F - 23.0 °F 37% 29.95 in 10.0 mi West 4.6 mph - N/A   Clear
12:35 AM 51.8 °F - 21.2 °F 30% 29.94 in 10.0 mi Calm Calm - N/A   Clear
12:55 AM 46.4 °F 44.3 °F 24.8 °F 43% 29.94 in 10.0 mi NNE 4.6 mph - N/A   Clear
1:15 AM 48.2 °F - 24.8 °F 40% 29.94 in 10.0 mi NNE 3.5 mph - N/A   Clear
1:35 AM 48.2 °F - 24.8 °F 40% 29.93 in 10.0 mi Calm Calm - N/A   Clear
1:55 AM 48.2 °F - 24.8 °F 40% 29.93 in 10.0 mi Calm Calm - N/A   Partly Cloudy
2:15 AM 48.2 °F - 24.8 °F 40% 29.93 in 10.0 mi Calm Calm - N/A   Partly Cloudy
2:35 AM 46.4 °F 44.3 °F 24.8 °F 43% 29.92 in 10.0 mi NNE 4.6 mph - N/A   Clear
2:55 AM 46.4 °F 45.2 °F 24.8 °F 43% 29.91 in 10.0 mi NNE 3.5 mph - N/A   Clear
3:15 AM 46.4 °F 45.2 °F 24.8 °F 43% 29.91 in 10.0 mi NNE 3.5 mph - N/A   Clear
3:35 AM 46.4 °F 45.2 °F 24.8 °F 43% 29.90 in 10.0 mi East 3.5 mph - N/A   Clear
3:55 AM 46.4 °F - 26.6 °F 46% 29.89 in 10.0 mi Calm Calm - N/A   Clear
4:15 AM 44.6 °F - 26.6 °F 49% 29.90 in 10.0 mi Calm Calm - N/A   Clear
4:35 AM 44.6 °F - 26.6 °F 49% 29.89 in 10.0 mi Calm Calm - N/A   Clear
4:55 AM 44.6 °F - 26.6 °F 49% 29.89 in 10.0 mi Calm Calm - N/A   Scattered Clouds
5:15 AM 44.6 °F - 26.6 °F 49% 29.88 in 10.0 mi Calm Calm - N/A   Scattered Clouds
5:35 AM 44.6 °F - 26.6 °F 49% 29.89 in 10.0 mi Calm Calm - N/A   Partly Cloudy
5:55 AM 46.4 °F - 23.0 °F 40% 29.89 in 10.0 mi Calm Calm - N/A   Mostly Cloudy
6:15 AM 46.4 °F - 24.8 °F 43% 29.89 in 10.0 mi Calm Calm - N/A   Mostly Cloudy
6:35 AM 46.4 °F 45.2 °F 21.2 °F 37% 29.89 in 10.0 mi WSW 3.5 mph - N/A   Scattered Clouds
6:55 AM 44.6 °F - 21.2 °F 39% 29.89 in 10.0 mi Calm Calm - N/A   Clear
7:15 AM 44.6 °F - 21.2 °F 39% 29.89 in 10.0 mi Calm Calm - N/A   Clear
7:35 AM 42.8 °F - 21.2 °F 42% 29.89 in 10.0 mi Calm Calm - N/A   Clear
7:55 AM 42.8 °F - 24.8 °F 49% 29.89 in 10.0 mi Calm Calm - N/A   Clear
8:15 AM 44.6 °F - 24.8 °F 46% 29.90 in 10.0 mi Calm Calm - N/A   Clear
8:35 AM 48.2 °F - 24.8 °F 40% 29.90 in 10.0 mi Calm Calm - N/A   Clear
8:55 AM 48.2 °F - 23.0 °F 37% 29.90 in 10.0 mi Calm Calm - N/A   Clear
9:15 AM 48.2 °F - 24.8 °F 40% 29.90 in 10.0 mi Calm Calm - N/A   Clear
9:35 AM 50.0 °F - 24.8 °F 37% 29.90 in 10.0 mi Calm Calm - N/A   Clear
9:55 AM 53.6 °F - 21.2 °F 28% 29.90 in 10.0 mi Calm Calm - N/A   Clear
10:15 AM 53.6 °F - 21.2 °F 28% 29.90 in 10.0 mi SSE 4.6 mph - N/A   Clear
10:35 AM 53.6 °F - 21.2 °F 28% 29.90 in 10.0 mi South 3.5 mph - N/A   Clear
10:55 AM 53.6 °F - 21.2 °F 28% 29.89 in 10.0 mi Calm Calm - N/A   Partly Cloudy
11:15 AM 55.4 °F - 21.2 °F 26% 29.89 in 10.0 mi Calm Calm - N/A   Clear
11:35 AM 55.4 °F - 21.2 °F 26% 29.88 in 10.0 mi Calm Calm - N/A   Clear
11:55 AM 55.4 °F - 21.2 °F 26% 29.88 in 10.0 mi SW 3.5 mph - N/A   Partly Cloudy
12:15 PM 55.4 °F - 21.2 °F 26% 29.87 in 10.0 mi WSW 5.8 mph - N/A   Partly Cloudy
12:35 PM 55.4 °F - 19.4 °F 25% 29.86 in 10.0 mi WNW 3.5 mph - N/A   Scattered Clouds
12:55 PM 55.4 °F - 19.4 °F 25% 29.84 in 10.0 mi Calm Calm - N/A   Partly Cloudy
1:15 PM 57.2 °F - 19.4 °F 23% 29.83 in 10.0 mi WNW 3.5 mph - N/A   Clear
1:35 PM 57.2 °F - 19.4 °F 23% 29.82 in 10.0 mi Calm Calm - N/A   Clear
1:55 PM 57.2 °F - 19.4 °F 23% 29.82 in 10.0 mi NW 4.6 mph - N/A   Partly Cloudy
2:15 PM 57.2 °F - 19.4 °F 23% 29.82 in 10.0 mi WNW 5.8 mph - N/A   Partly Cloudy
2:35 PM 57.2 °F - 19.4 °F 23% 29.82 in 10.0 mi WNW 5.8 mph - N/A   Clear
2:55 PM 57.2 °F - 19.4 °F 23% 29.82 in 10.0 mi West 4.6 mph - N/A   Clear
3:15 PM 57.2 °F - 19.4 °F 23% 29.82 in 10.0 mi WNW 6.9 mph - N/A   Scattered Clouds
3:35 PM 57.2 °F - 17.6 °F 21% 29.82 in 10.0 mi West 8.1 mph - N/A   Mostly Cloudy
3:55 PM 57.2 °F - 15.8 °F 20% 29.82 in 10.0 mi WNW 9.2 mph - N/A   Mostly Cloudy
4:15 PM 59.0 °F - 14.0 °F 17% 29.83 in 10.0 mi WNW 11.5 mph - N/A   Partly Cloudy
4:35 PM 59.0 °F - 12.2 °F 16% 29.83 in 10.0 mi WNW 13.8 mph 19.6 mph N/A   Clear
4:55 PM 57.2 °F - 14.0 °F 18% 29.84 in 10.0 mi WNW 10.4 mph - N/A   Partly Cloudy
5:15 PM 57.2 °F - 15.8 °F 20% 29.85 in 10.0 mi WNW 10.4 mph - N/A   Partly Cloudy
5:35 PM 55.4 °F - 15.8 °F 21% 29.85 in 10.0 mi NW 11.5 mph - N/A   Partly Cloudy
5:55 PM 55.4 °F - 15.8 °F 21% 29.85 in 10.0 mi NW 9.2 mph - N/A   Scattered Clouds
6:15 PM 55.4 °F - 17.6 °F 23% 29.85 in 10.0 mi WNW 6.9 mph - N/A   Mostly Cloudy
6:35 PM 55.4 °F - 17.6 °F 23% 29.86 in 10.0 mi WNW 6.9 mph - N/A   Overcast
6:55 PM 53.6 °F - 17.6 °F 24% 29.87 in 10.0 mi West 3.5 mph - N/A   Overcast
7:15 PM 53.6 °F - 17.6 °F 24% 29.87 in 10.0 mi West 4.6 mph - N/A   Overcast
7:35 PM 51.8 °F - 17.6 °F 26% 29.87 in 10.0 mi WNW 5.8 mph - N/A   Overcast
7:55 PM 51.8 °F - 17.6 °F 26% 29.88 in 10.0 mi West 5.8 mph - N/A   Mostly Cloudy
8:15 PM 50.0 °F - 15.8 °F 26% 29.88 in 10.0 mi West 8.1 mph - N/A   Scattered Clouds
8:35 PM 48.2 °F - 15.8 °F 27% 29.89 in 10.0 mi West 6.9 mph - N/A   Clear
8:55 PM 48.2 °F - 15.8 °F 27% 29.89 in 10.0 mi WNW 8.1 mph - N/A   Clear
9:15 PM 48.2 °F - 14.0 °F 25% 29.90 in 10.0 mi West 6.9 mph - N/A   Clear
9:35 PM 46.4 °F 42.4 °F 15.8 °F 29% 29.90 in 10.0 mi WNW 8.1 mph - N/A   Clear
9:55 PM 46.4 °F 43.5 °F 15.8 °F 29% 29.91 in 10.0 mi West 5.8 mph - N/A   Clear
10:15 PM 44.6 °F - 15.8 °F 31% 29.91 in 10.0 mi Calm Calm - N/A   Clear
10:35 PM 44.6 °F - 15.8 °F 31% 29.91 in 10.0 mi Calm Calm - N/A   Clear
10:55 PM 41.0 °F - 15.8 °F 36% 29.92 in 10.0 mi Calm Calm - N/A   Clear
11:15 PM 42.8 °F 41.1 °F 17.6 °F 36% 29.92 in 10.0 mi South 3.5 mph - N/A   Clear
11:35 PM 42.8 °F - 17.6 °F 36% 29.93 in 10.0 mi Calm Calm - N/A   Clear
11:55 PM 37.4 °F - 17.6 °F 45% 29.93 in 10.0 mi Calm Calm - N/A   Clear